Home   Weather   Moss   Past weeks
Flag for Norway

Past Weather in Moss, Norway — Yesterday and Last 2 Weeks

Now
64 °F

Scattered clouds.


Feels Like: 64 °F
Forecast: 65 / 53 °F
Wind: 20 mph from Southwest

Location: Rygge

Current Time: Aug 20, 2019 at 2:21:47 pm

Latest Report: Aug 20, 2019 at 1:50 pm


Visibility: N/A

Pressure: 29.95 "Hg

Humidity: 64%

Dew Point: 52 °F

Location of MossLocation

Past Weather in Moss — Graph

°F

Moss Temperature Yesterday

Maximum temperature yesterday: 64 °F (at 1:50 pm)
Minimum temperature yesterday: 55 °F (at 1:20 am)
Average temperature yesterday: 60 °F

High & Low Weather Summary for the Past Weeks

 TemperatureHumidityPressure
High73 °F (Aug 9, 12:50 pm)100% (Aug 9, 1:50 am)29.95 "Hg (Aug 9, 1:50 am)
Low50 °F (Aug 9, 5:20 am)52% (Aug 13, 6:50 pm)29.47 "Hg (Aug 11, 5:50 am)
Average61 °F80%29.66 "Hg
* Reported Aug 5 1:20 pm — Aug 20 1:20 pm, Moss. Weather by CustomWeather, © 2019

Note: Actual official high and low records may vary slightly from our data, if they occured in-between our weather recording intervals... More about our weather records

Advertising

Moss Weather History for the Previous 24 Hours

Scroll right to see more
 ConditionsComfort  
Time TempWeatherWind HumidityBarometerVisibility
1:20 pm
Tue, Aug 20
64 °FScattered showers. Scattered clouds.18 mph64%29.95 "HgN/A
12:50 pm64 °FScattered clouds.20 mph68%29.95 "HgN/A
12:20 pm63 °FScattered showers. Scattered clouds.14 mph73%29.92 "HgN/A
11:50 am63 °FRain showers. Scattered clouds.16 mph68%29.92 "HgN/A
11:20 am64 °FScattered clouds.13 mph64%29.92 "HgN/A
10:50 am64 °FPassing clouds.13 mph64%29.92 "HgN/A
10:20 am63 °FPassing clouds.14 mph68%29.92 "HgN/A
9:20 am61 °FPassing clouds.14 mph72%29.89 "HgN/A
8:50 am61 °FPassing clouds.12 mph77%29.89 "HgN/A
7:20 am59 °FPassing clouds.9 mph82%29.86 "HgN/A
6:50 am57 °FPartly sunny.8 mph88%29.86 "HgN/A
6:20 am57 °FScattered clouds.9 mph88%29.86 "HgN/A
5:50 am57 °FCool.8 mph88%29.83 "HgN/A
5:20 am57 °FOvercast.6 mph88%29.83 "HgN/A
4:50 am55 °FPassing clouds.6 mph88%29.83 "HgN/A
3:20 am57 °FPassing clouds.3 mph82%29.83 "HgN/A
2:50 am57 °FPassing clouds.8 mph88%29.80 "HgN/A
2:20 am57 °FPassing clouds.8 mph88%29.80 "HgN/A
1:50 am59 °FCool.8 mph82%29.80 "HgN/A
1:20 am59 °FPassing clouds.8 mph82%29.80 "HgN/A
12:50 am59 °FOvercast.9 mph82%29.80 "HgN/A
12:20 am59 °FPassing clouds.9 mph82%29.80 "HgN/A
11:50 pm
Mon, Aug 19
59 °FCool.9 mph82%29.77 "HgN/A
11:20 pm59 °FCool.12 mph82%29.77 "HgN/A
10:50 pm61 °FCool.13 mph83%29.77 "HgN/A
10:20 pm61 °FCool.13 mph83%29.77 "HgN/A
9:50 pm61 °FPassing clouds.12 mph83%29.77 "HgN/A
9:20 pm61 °FOvercast.12 mph83%29.77 "HgN/A
8:50 pm63 °FMostly cloudy.15 mph77%29.74 "HgN/A
8:20 pm63 °FPartly sunny.14 mph77%29.74 "HgN/A
7:50 pm63 °FPartly sunny.16 mph73%29.71 "HgN/A
7:20 pm63 °FScattered clouds.16 mph77%29.71 "HgN/A
6:50 pm63 °FBroken clouds.20 mph77%29.71 "HgN/A
6:20 pm63 °FPartly sunny.17 mph77%29.71 "HgN/A
5:50 pm64 °FScattered clouds.20 mph73%29.68 "HgN/A
5:20 pm64 °FScattered clouds.18 mph73%29.68 "HgN/A
4:50 pm64 °FScattered clouds.18 mph68%29.68 "HgN/A
4:20 pm64 °FPartly sunny.18 mph73%29.68 "HgN/A
3:50 pm64 °FScattered clouds.20 mph68%29.68 "HgN/A
3:20 pm64 °FScattered clouds.18 mph68%29.68 "HgN/A
2:50 pm64 °FPartly sunny.20 mph73%29.65 "HgN/A
Weather by CustomWeather, © 2019

See weather overview